This demonstration page uses our WeatherBlox Daily Observations layout. Learn more.

Left ArrowRight Arrow

Hourly Observations for November 26, 2020

Temp ( °F °C ) Dew Point ( °F °C ) Humidity (%) Winds ( mph kmh ) Pressure ( in mb ) Visibility ( mi km ) Precip ( " mm )
12:15 am 00:15 Clear 35 1.8 28 -2.5 73 73 SW 8 13 29.96 1014 10 16 N/A
12:35 am 00:35 Clear 35 1.7 28 -2.3 75 75 SW 9 15 29.96 1015 10 16 N/A
12:55 am 00:55 Clear 35 1.5 28 -2.5 75 75 SW 8 13 29.96 1015 10 16 N/A
1:15 am 01:15 Clear 34 1.2 27 -2.6 76 76 SW 7 11 29.97 1015 10 16 N/A
1:35 am 01:35 Clear 36 2.2 28 -2.4 72 72 WSW 8 13 29.96 1015 10 16 N/A
1:55 am 01:55 Clear 37 2.5 27 -2.8 68 68 SW 9 15 29.95 1014 10 16 N/A
2:15 am 02:15 Clear 35 1.5 27 -3 72 72 SW 12 19 29.96 1015 10 16 N/A
2:35 am 02:35 Clear 37 2.9 27 -2.6 67 67 WSW 12 19 29.95 1014 10 16 N/A
2:55 am 02:55 Clear 37 3 27 -3 65 65 SW 8 13 29.96 1014 10 16 N/A
3:15 am 03:15 Clear 36 2.2 27 -3 69 69 SW 8 13 29.96 1015 10 16 N/A
3:35 am 03:35 Clear 36 2.2 27 -3 69 69 SW 10 17 29.96 1015 10 16 N/A
3:55 am 03:55 Clear 37 2.6 26 -3.1 66 66 WSW 6 9 29.97 1015 10 16 N/A
4:15 am 04:15 Clear 35 1.9 26 -3.2 69 69 WSW 6 9 29.97 1015 10 16 N/A
4:35 am 04:35 Clear 34 1.2 26 -3.5 71 71 W 8 13 29.98 1015 10 16 N/A
4:55 am 04:55 Clear 32 undefined 25 -4 75 75 W 5 7 30.00 1016 10 16 N/A
5:15 am 05:15 Clear 32 0.1 25 -4.1 74 74 W 5 7 30.01 1016 10 16 N/A
5:35 am 05:35 Clear 33 0.7 24 -4.3 70 70 WNW 6 9 30.02 1017 10 16 N/A
5:55 am 05:55 Clear 35 1.9 23 -4.8 62 62 WNW 5 7 30.01 1016 10 16 N/A
6:15 am 06:15 Clear 34 1.1 23 -5 64 64 WNW 5 7 30.02 1017 10 16 N/A
6:35 am 06:35 Clear 31 -0.3 22 -5.3 69 69 WNW 6 9 30.05 1018 10 16 N/A
6:55 am 06:55 Clear 29 -1.5 22 -5.5 74 74 NNW 5 7 30.07 1018 10 16 N/A
7:15 am 07:15 Clear 29 -1.4 22 -5.5 74 74 NNW 7 11 30.08 1019 10 16 N/A
7:35 am 07:35 Clear 30 -1 22 -5.3 73 73 NNW 8 13 30.08 1019 10 16 N/A
7:55 am 07:55 Sunny 30 -1.1 22 -5.3 73 73 NNW 8 13 30.09 1019 10 16 N/A
8:15 am 08:15 Sunny 30 -1.1 23 -5.2 74 74 NNW 7 11 30.09 1019 10 16 N/A
8:35 am 08:35 Sunny 31 -0.7 23 -4.8 74 74 NNW 7 11 30.09 1019 10 16 N/A
8:55 am 08:55 Sunny 32 0.1 25 -3.7 76 76 NNW 7 11 30.09 1019 10 16 N/A
9:15 am 09:15 Sunny 35 1.5 27 -2.6 74 74 NNW 9 15 30.08 1019 10 16 N/A
9:35 am 09:35 Sunny 37 2.5 29 -1.9 73 73 N 7 11 30.07 1018 10 16 N/A
9:55 am 09:55 Sunny 37 3 30 -1.2 74 74 N 15 24 30.08 1019 10 16 N/A
10:15 am 10:15 Sunny 39 3.9 31 -0.5 73 73 NNE 14 22 30.07 1018 10 16 N/A
10:35 am 10:35 Sunny 41 4.9 32 undefined 71 71 N 16 26 30.07 1018 10 16 N/A
10:55 am 10:55 Sunny 42 5.8 33 0.4 69 69 NNE 15 24 30.06 1018 10 16 N/A
11:15 am 11:15 Sunny 44 6.4 33 0.4 66 66 NNE 18 30 30.06 1018 10 16 N/A
11:35 am 11:35 Sunny 44 6.6 33 0.6 66 66 NNE 15 24 30.05 1018 10 16 N/A
11:55 am 11:55 Sunny 45 7.4 33 0.8 63 63 NNE 10 17 30.04 1017 10 16 N/A
12:15 pm 12:15 Sunny 46 7.7 33 0.6 61 61 NE 15 24 30.03 1017 10 16 N/A
12:35 pm 12:35 Sunny 46 8 34 0.9 61 61 NNE 15 24 30.02 1017 10 16 N/A
12:55 pm 12:55 Sunny 47 8.5 34 1 60 60 NNE 13 20 30.02 1016 10 16 N/A
1:15 pm 13:15 Sunny 47 8.6 34 1.1 60 60 NNE 16 26 30.02 1016 10 16 N/A
1:35 pm 13:35 Sunny 48 8.8 34 1.1 59 59 NNE 17 28 30.00 1016 10 16 N/A
1:55 pm 13:55 Sunny 49 9.2 35 1.6 59 59 NNE 15 24 29.99 1016 10 16 N/A
2:15 pm 14:15 Sunny 49 9.2 34 1.2 58 58 NNE 16 26 29.99 1016 10 16 N/A
2:35 pm 14:35 Sunny 49 9.3 34 1.3 58 58 N 15 24 29.98 1015 10 16 N/A
2:55 pm 14:55 Sunny 49 9.3 34 1.3 58 58 N 15 24 29.98 1015 10 16 N/A
3:15 pm 15:15 Sunny 49 9.2 34 1.2 58 58 NNE 15 24 29.98 1015 10 16 N/A
3:35 pm 15:35 Sunny 48 9.1 34 1.2 58 58 N 16 26 29.98 1015 10 16 N/A
3:55 pm 15:55 Sunny 48 9.1 35 1.4 59 59 NNE 15 24 29.98 1015 10 16 N/A
4:15 pm 16:15 Sunny 48 8.7 34 1.3 60 60 NNE 12 19 29.99 1016 10 16 N/A
4:35 pm 16:35 Sunny 46 8 34 1.2 63 63 NNE 10 17 30.01 1016 10 16 N/A
4:55 pm 16:55 Sunny 45 7 34 1 66 66 NE 8 13 30.02 1017 10 16 N/A
5:15 pm 17:15 Clear 41 5.2 33 0.5 72 72 NE 8 13 30.05 1017 10 16 N/A
5:35 pm 17:35 Clear 37 3 31 -0.4 79 79 NE 6 9 30.07 1018 10 16 N/A
5:55 pm 17:55 Clear 37 2.5 31 -0.5 81 81 NNE 7 11 30.09 1019 10 16 N/A
6:15 pm 18:15 Clear 33 0.4 28 -2 84 84 NE 6 9 30.13 1020 10 16 N/A
6:35 pm 18:35 Clear 32 undefined 28 -2.1 86 86 NNE 7 11 30.15 1021 10 16 N/A
6:55 pm 18:55 Clear 33 0.7 30 -1.3 87 87 NNE 6 9 30.15 1021 10 16 N/A
7:15 pm 19:15 Clear 33 0.3 29 -1.4 89 89 N 6 9 30.16 1021 10 16 N/A
7:35 pm 19:35 Clear 32 -0.2 28 -2.2 87 87 N 6 9 30.17 1022 10 16 N/A
7:55 pm 19:55 Clear 31 -0.4 28 -2.2 88 88 N 5 7 30.18 1022 10 16 N/A
8:15 pm 20:15 Clear 31 -0.3 28 -2 88 88 N 6 9 30.19 1022 10 16 N/A
8:35 pm 20:35 Clear 30 -1 27 -2.8 88 88 N 3 6 30.19 1023 10 16 N/A
8:55 pm 20:55 Clear 30 -1.1 27 -2.7 89 89 N 3 6 30.21 1023 10 16 N/A
9:15 pm 21:15 Clear 31 -0.6 28 -2.1 90 90 N 3 6 30.22 1023 10 16 N/A
9:35 pm 21:35 Clear 32 -0.2 28 -2.1 87 87 N 5 7 30.23 1024 10 16 N/A
9:55 pm 21:55 Clear 32 0.2 29 -1.5 89 89 N N/A 30.23 1024 10 16 N/A
10:15 pm 22:15 Clear 32 undefined 29 -1.5 90 90 N N/A 30.24 1024 10 16 N/A
10:35 pm 22:35 Clear 33 0.5 30 -1.1 89 89 N N/A 30.23 1024 10 16 N/A
10:55 pm 22:55 Clear 33 0.6 30 -1.1 89 89 N 3 6 30.24 1024 10 16 N/A
11:15 pm 23:15 Clear 33 0.4 29 -1.5 87 87 N 3 6 30.24 1024 10 16 N/A
11:35 pm 23:35 Clear 31 -0.6 28 -2.2 89 89 N N/A 30.25 1024 10 16 N/A
11:55 pm 23:55 Clear 31 -0.6 28 -2 90 90 NNW 3 6 30.26 1025 10 16 N/A

Powered by AerisWeather